Carmi, IL

3:52 PM CDT on September 26, 2016 (GMT -0500)
Carmi Municipal

Weather History for KCUL - April, 2013

Change the Weather History Date:

Sunday, April 21, 2013

  Actual Average (KEVV) Record (KEVV)
Temperature  
Mean Temperature 50 °F 58 °F  
Max Temperature 63 °F 70 °F 87 °F (1987)
Min Temperature 38 °F 46 °F 31 °F (1904)
Degree Days  
Heating Degree Days 14 8  
Month to date heating degree days 230  
Since 1 July heating degree days 4396  
Cooling Degree Days 0 1  
Month to date cooling degree days 13  
Year to date cooling degree days 16  
Moisture  
Dew Point 37 °F    
Average Humidity 59    
Maximum Humidity 84    
Minimum Humidity 34    
Precipitation  
Precipitation 0.00 in 0.15 in 3.41 in (1928)
Month to date precipitation 2.93  
Year to date precipitation 13.44  
Snow  
Snow 0.00 in 0.00 in 0.00 in (2002)
Month to date snowfall 0.1  
Since 1 July snowfall 11.8  
Snow Depth -    
Sea Level Pressure  
Sea Level Pressure 30.37 in    
Wind  
Wind Speed 7 mph (ENE)    
Max Wind Speed 12 mph    
Max Gust Speed -    
Visibility 10 miles    
Events      
T = Trace of Precipitation, MM = Missing Value Source: NWS Daily Summary

Daily Weather History Graph

Daily Weather History Graph

Search for Another Location

Airport or City:

Trip Planner

Search our weather history database for the weather conditions in past years. The results will help you decide how hot, cold, wet, or windy it might be!

Date:

Astronomy

Apr. 21, 2013 Rise Set
Actual Time 6:08 AM CDT 7:34 PM CDT
Civil Twilight 5:40 AM CDT 8:02 PM CDT
Nautical Twilight 5:07 AM CDT 8:35 PM CDT
Astronomical Twilight 4:32 AM CDT 9:10 PM CDT
Moon 3:23 PM CDT (4/21) 3:26 AM CDT (4/21)
Length of Visible Light 14h 21m
Length of Day
13h 26m
Waxing Gibbous, 80% of the Moon is Illuminated
Apr 21
Waxing Gibbous
Apr 25
Full
May 2
Last Quarter
May 9
New
May 17
First Quarter

Hourly Weather History & Observations

Time (CDT) Temp. Windchill Dew Point Humidity Pressure Visibility Wind Dir Wind Speed Gust Speed Precip Events Conditions
12:15 AM 43.3 °F 39.2 °F 36.3 °F 76% 30.37 in 10.0 mi NE 6.9 mph - N/A   Clear
12:35 AM 43.3 °F 38.6 °F 36.0 °F 75% 30.37 in 10.0 mi NE 8.1 mph - N/A   Clear
12:55 AM 43.5 °F 39.4 °F 35.1 °F 72% 30.38 in 10.0 mi NE 6.9 mph - N/A   Clear
1:15 AM 43.3 °F 39.9 °F 34.7 °F 72% 30.38 in 10.0 mi NE 5.8 mph - N/A   Clear
1:35 AM 43.2 °F 38.4 °F 34.2 °F 71% 30.38 in 10.0 mi NE 8.1 mph - N/A   Clear
4:15 AM 40.6 °F 38.6 °F 33.4 °F 75% 30.39 in 10.0 mi NE 3.5 mph - N/A   Clear
4:35 AM 39.0 °F 36.8 °F 32.9 °F 79% 30.40 in 10.0 mi NNE 3.5 mph - N/A   Clear
4:55 AM 39.4 °F 36.1 °F 33.4 °F 79% 30.40 in 10.0 mi NE 4.6 mph - N/A   Clear
5:15 AM 39.4 °F 36.1 °F 33.8 °F 80% 30.40 in 10.0 mi NE 4.6 mph - N/A   Clear
5:35 AM 39.2 °F 34.2 °F 33.3 °F 79% 30.41 in 10.0 mi NE 6.9 mph - N/A   Clear
5:55 AM 38.1 °F 33.7 °F 33.6 °F 84% 30.42 in 10.0 mi NE 5.8 mph - N/A   Clear
6:15 AM 38.1 °F 33.7 °F 33.3 °F 83% 30.43 in 10.0 mi NE 5.8 mph - N/A   Clear
6:35 AM 38.7 °F 33.6 °F 33.3 °F 81% 30.43 in 10.0 mi NE 6.9 mph - N/A   Clear
6:55 AM 40.3 °F 36.3 °F 33.4 °F 77% 30.44 in 10.0 mi ENE 5.8 mph - N/A   Clear
7:15 AM 42.3 °F 37.9 °F 33.3 °F 70% 30.45 in 10.0 mi ENE 6.9 mph - N/A   Clear
7:35 AM 43.3 °F 38.1 °F 32.9 °F 67% 30.45 in 10.0 mi ENE 9.2 mph - N/A   Clear
7:55 AM 44.1 °F 40.1 °F 33.3 °F 66% 30.46 in 10.0 mi East 6.9 mph - N/A   Clear
8:15 AM 45.3 °F 39.7 °F 32.9 °F 62% 30.46 in 10.0 mi East 11.5 mph - N/A   Clear
8:35 AM 46.4 °F 41.5 °F 33.8 °F 62% 30.46 in 10.0 mi East 10.4 mph - N/A   Clear
8:55 AM 47.3 °F - 34.5 °F 61% 30.46 in 10.0 mi East 9.2 mph - N/A   Clear
9:15 AM 49.1 °F - 35.1 °F 58% 30.46 in 10.0 mi East 9.2 mph - N/A   Clear
9:35 AM 51.4 °F - 36.3 °F 56% 30.46 in 10.0 mi East 9.2 mph - N/A   Clear
9:55 AM 51.8 °F - 35.1 °F 53% 30.46 in 10.0 mi ESE 9.2 mph - N/A   Clear
10:15 AM 53.1 °F - 35.4 °F 51% 30.45 in 10.0 mi East 10.4 mph - N/A   Clear
10:35 AM 53.6 °F - 36.9 °F 53% 30.45 in 10.0 mi East 9.2 mph - N/A   Clear
10:55 AM 53.8 °F - 36.5 °F 52% 30.45 in 10.0 mi ESE 8.1 mph - N/A   Clear
11:15 AM 54.5 °F - 35.6 °F 49% 30.44 in 10.0 mi East 6.9 mph - N/A   Clear
11:35 AM 54.1 °F - 35.4 °F 49% 30.43 in 10.0 mi ENE 5.8 mph - N/A   Clear
11:55 AM 55.9 °F - 37.8 °F 51% 30.42 in 10.0 mi NE 8.1 mph - N/A   Clear
12:15 PM 57.0 °F - 38.1 °F 49% 30.42 in 10.0 mi NE 5.8 mph - N/A   Clear
12:35 PM 57.6 °F - 35.2 °F 43% 30.41 in 10.0 mi Calm Calm - N/A   Clear
12:55 PM 59.5 °F - 36.3 °F 42% 30.40 in 10.0 mi ENE 9.2 mph - N/A   Clear
1:15 PM 60.3 °F - 38.1 °F 44% 30.39 in 10.0 mi ENE 4.6 mph - N/A   Clear
1:35 PM 60.1 °F - 37.9 °F 44% 30.38 in 10.0 mi NNE 4.6 mph - N/A   Clear
1:55 PM 60.3 °F - 35.6 °F 40% 30.38 in 10.0 mi East 10.4 mph - N/A   Clear
2:15 PM 61.3 °F - 36.7 °F 40% 30.37 in 10.0 mi NE 5.8 mph - N/A   Clear
2:35 PM 61.2 °F - 33.8 °F 36% 30.36 in 10.0 mi NE 3.5 mph - N/A   Clear
2:55 PM 62.2 °F - 36.0 °F 38% 30.35 in 10.0 mi East 5.8 mph - N/A   Clear
3:15 PM 62.8 °F - 34.3 °F 35% 30.33 in 10.0 mi ENE 8.1 mph - N/A   Clear
3:35 PM 63.0 °F - 34.0 °F 34% 30.32 in 10.0 mi East 8.1 mph - N/A   Clear
3:55 PM 63.3 °F - 35.4 °F 35% 30.32 in 10.0 mi East 8.1 mph - N/A   Clear
4:15 PM 62.2 °F - 33.3 °F 34% 30.31 in 10.0 mi ENE 9.2 mph - N/A   Clear
4:35 PM 62.6 °F - 34.3 °F 35% 30.30 in 10.0 mi ENE 5.8 mph - N/A   Clear
4:55 PM 62.8 °F - 34.9 °F 35% 30.30 in 10.0 mi ENE 9.2 mph - N/A   Clear
5:15 PM 62.4 °F - 35.1 °F 36% 30.30 in 10.0 mi NE 8.1 mph - N/A   Clear
5:35 PM 62.1 °F - 34.7 °F 36% 30.30 in 10.0 mi ENE 9.2 mph - N/A   Clear
5:55 PM 61.7 °F - 34.5 °F 36% 30.30 in 10.0 mi NE 8.1 mph - N/A   Clear
6:15 PM 61.2 °F - 35.2 °F 38% 30.30 in 10.0 mi ENE 8.1 mph - N/A   Clear
6:35 PM 61.0 °F - 36.5 °F 40% 30.30 in 10.0 mi ENE 9.2 mph - N/A   Clear
6:55 PM 59.7 °F - 37.4 °F 43% 30.30 in 10.0 mi ENE 6.9 mph - N/A   Clear
7:15 PM 58.3 °F - 40.5 °F 52% 30.30 in 10.0 mi NE 5.8 mph - N/A   Clear
7:35 PM 55.8 °F - 42.6 °F 61% 30.30 in 10.0 mi NE 5.8 mph - N/A   Clear
7:55 PM 54.3 °F - 44.6 °F 70% 30.30 in 10.0 mi NE 5.8 mph - N/A   Clear
8:15 PM 53.1 °F - 43.9 °F 71% 30.31 in 10.0 mi NE 4.6 mph - N/A   Clear
8:35 PM 52.3 °F - 42.8 °F 70% 30.31 in 10.0 mi NE 5.8 mph - N/A   Clear
8:55 PM 51.3 °F - 43.0 °F 73% 30.31 in 10.0 mi ENE 5.8 mph - N/A   Clear
9:15 PM 50.0 °F - 43.2 °F 77% 30.31 in 10.0 mi Calm Calm - N/A   Clear
9:35 PM 50.4 °F - 40.8 °F 70% 30.31 in 10.0 mi Calm Calm - N/A   Clear
9:55 PM 47.7 °F - 40.1 °F 75% 30.31 in 10.0 mi NE 4.6 mph - N/A   Clear
10:15 PM 46.8 °F - 40.5 °F 79% 30.31 in 10.0 mi NE 4.6 mph - N/A   Clear
10:35 PM 46.6 °F - 41.7 °F 83% 30.31 in 10.0 mi Calm Calm - N/A   Clear
10:55 PM 46.8 °F - 41.9 °F 83% 30.30 in 10.0 mi ENE 4.6 mph - N/A   Clear
11:15 PM 48.4 °F - 41.2 °F 76% 30.30 in 10.0 mi ENE 6.9 mph - N/A   Clear
11:35 PM 46.2 °F 43.3 °F 40.1 °F 79% 30.30 in 10.0 mi ENE 5.8 mph - N/A   Clear
11:55 PM 48.4 °F - 39.7 °F 72% 30.30 in 10.0 mi ENE 6.9 mph - N/A   Clear